This demonstration page uses our WeatherBlox Daily Observations layout. Learn more.

Left ArrowRight Arrow

44.8408, -93.29828

Hourly Observations for September 9, 2017

Temp ( °F °C ) Dew Point ( °F °C ) Humidity (%) Winds ( mph kmh ) Pressure ( in mb ) Visibility ( mi km ) Precip ( " mm )
12:53 am 00:53 Clear 56 13.3 46 7.8 70 70 ESE 10 17 30.29 1026 10 16 0.00 0.00
1:53 am 01:53 Clear 55 12.8 46 7.8 72 72 SE 9 15 30.30 1026 10 16 0.00 0.00
2:53 am 02:53 Clear 54 12.2 46 7.8 75 75 ESE 8 13 30.30 1026 10 16 0.00 0.00
3:53 am 03:53 Mostly Cloudy 54 12.2 47 8.3 77 77 ESE 10 17 30.32 1027 10 16 0.00 0.00
4:53 am 04:53 Partly Cloudy 53 11.7 48 8.9 83 83 ESE 8 13 30.32 1027 10 16 0.00 0.00
5:53 am 05:53 Mostly Clear 55 12.8 50 10 83 83 SE 12 19 30.32 1027 10 16 0.00 0.00
6:53 am 06:53 Mostly Sunny 54 12.2 49 9.4 83 83 SE 12 19 30.34 1027 10 16 0.00 0.00
7:53 am 07:53 Sunny 55 12.8 50 10 83 83 ESE 10 17 30.34 1027 10 16 0.00 0.00
8:53 am 08:53 Sunny 58 14.4 51 10.6 78 78 ESE 13 20 30.34 1027 10 16 0.00 0.00
9:53 am 09:53 Sunny 62 16.7 52 11.1 70 70 SSE 16 26 30.34 1027 10 16 0.00 0.00
10:53 am 10:53 Sunny 65 18.3 53 11.7 66 66 ESE 16 26 30.32 1027 10 16 0.00 0.00
11:53 am 11:53 Sunny 68 20 55 12.8 63 63 ESE 16 26 30.31 1026 10 16 0.00 0.00
12:53 pm 12:53 Sunny 71 21.7 56 13.3 59 59 ESE 16 26 30.28 1026 10 16 0.00 0.00
1:53 pm 13:53 Sunny 73 22.8 57 13.9 57 57 SSE 16 26 30.28 1026 10 16 0.00 0.00
2:53 pm 14:53 Sunny 74 23.3 58 14.4 57 57 ESE 14 22 30.27 1025 10 16 0.00 0.00
3:53 pm 15:53 Sunny 75 23.9 59 15 58 58 ESE 16 26 30.25 1024 10 16 0.00 0.00
4:53 pm 16:53 Mostly Sunny 75 23.9 60 15.6 60 60 ESE 13 20 30.23 1024 10 16 0.00 0.00
5:53 pm 17:53 Partly Cloudy 75 23.9 60 15.6 60 60 SE 12 19 30.23 1024 10 16 0.00 0.00
6:53 pm 18:53 Partly Cloudy 72 22.2 60 15.6 66 66 ESE 13 20 30.22 1023 10 16 0.00 0.00
7:53 pm 19:53 Partly Cloudy 71 21.7 60 15.6 68 68 ESE 13 20 30.23 1024 10 16 0.00 0.00
8:53 pm 20:53 Partly Cloudy 69 20.6 59 15 70 70 SE 15 24 30.24 1024 10 16 0.00 0.00
9:53 pm 21:53 Partly Cloudy 68 20 59 15 73 73 SE 10 17 30.24 1024 10 16 0.00 0.00
10:53 pm 22:53 Partly Cloudy 67 19.4 59 15 76 76 SE 12 19 30.24 1024 10 16 0.00 0.00
11:53 pm 23:53 Partly Cloudy 65 18.3 59 15 81 81 SE 13 20 30.24 1024 10 16 0.00 0.00

Powered by AerisWeather